Location: Amber Place
(27.9751°N, 82.3711°W)
Time: 19:07:04
(UTC+00:00)

N. Korean satellite - Pass Details

Date: 02 October 2021
Orbit: 450 x 495 km, 97.3° (Epoch: 16 October)

Event Time Altitude Azimuth Distance (km) Brightness Sun altitude
Rises 09:43:57 0° 36° (NE) 2,558 10.9 -22.6°
Reaches altitude 10° 09:46:52 10° 63° (ENE) 1,681 10.3 -22.0°
Maximum altitude 09:48:48 14° 95° (E) 1,454 10.0 -21.6°
Drops below altitude 10° 09:50:45 10° 128° (SE) 1,683 9.9 -21.2°
Sets 09:53:39 0° 154° (SSE) 2,564 10.5 -20.5°
